Regional Weather Roundup
Issued by NWS Jackson, KY

Home | Current Version | Previous Version | Text Only | Print | Product List | Glossary On
Versions: 1 2 3 4 5 6 7 8 9 10 11 12 13 14 15 16 17 18 19 20 21 22 23 24 25 26 27 28 29 30 31 32 33 34 35 36 37 38 39 40 41 42 43 44 45 46 47 48 49 50
000
ASUS43 KJKL 230119
RWRJKL

EAST KENTUCKY HOURLY WEATHER ROUNDUP
NATIONAL WEATHER SERVICE JACKSON KY
900 PM EDT FRI AUG 22 2014

NOTE: "FAIR" INDICATES FEW OR NO CLOUDS BELOW 12,000 FEET WITH
NO SIGNIFICANT WEATHER AND/OR OBSTRUCTIONS TO VISIBILITY.

* THESE REPORTS ARE NOT UNDER NWS QUALITY CONTROL AND MAY NOT
  REPORT WEATHER SUCH AS PRECIPITATION AND FOG.

KYZ079-080-083-085-087-088-110-112-115-119-120-230200
...EASTERN KENTUCKY...

CITY           SKY/WX    TMP DP  RH WIND       PRES   REMARKS
JACKSON        LGT RAIN  71  67  87 W6        30.03R
LONDON         MOCLDY    82  71  69 CALM      30.03R
SOMERSET*      CLOUDY    81  70  69 CALM      30.03R
MONTICELLO*    CLEAR     77  75  93 CALM      30.04R
WILLIAMSBURG*  CLEAR     79  73  83 CALM      30.04
MIDDLESBORO*   PTCLDY    78  73  83 CALM      30.03R
HARLAN APT*    CLOUDY    73  72  94 MISG      30.05R
HAZARD APT*    HVY RAIN  77  75  94 W10G21    30.03R
PIKEVILLE APT* TSTM      70  70 100 NE12G18   30.07R
BIG SANDY*     HVY RAIN  72  71  99 S3        30.04R
MOREHEAD APT*  LGT RAIN  75  70  83 SW5       30.02S
ASHLAND*       MOCLDY    73  70  88 CALM      29.96S
$$

KYZ035-036-041-042-044-050-067-078-099-230200
...CENTRAL KENTUCKY...

CITY           SKY/WX    TMP DP  RH WIND       PRES   REMARKS
MT STERLING*   CLOUDY    72  72 100 SW6       30.03R
FLEMING/MASON* MOCLDY    73  72  94 SW6       30.00R
DANVILLE*      CLOUDY    81  72  74 SW3       30.02R
RICHMOND*      CLOUDY    75  70  83 SE3       30.01S
LEXINGTON      TSTM      76  72  87 NE3       30.02R
FRANKFORT      CLOUDY    75  73  93 CALM      29.99S
$$

KYZ091>093-OHZ055-061-077-WVZ005-015-034-035-042-230200
...SOUTHERN OHIO/WEST VIRGINIA...

CITY           SKY/WX    TMP DP  RH WIND       PRES   REMARKS
COVINGTON      PTCLDY    80  71  74 NW6       29.99R
COLUMBUS       MOCLDY    80  72  76 CALM      29.96R
DAYTON         PTCLDY    78  72  81 N3        29.99R
WILMINGTON     PTCLDY    77  72  84 CALM      29.98R
HUNTINGTON     CLOUDY    71  71 100 SW7       29.98S
CHARLESTON     MOCLDY    73  73 100 CALM      29.99R
PINEVILLE*     RAIN      70  70 100 MISG      30.12S
BECKLEY        CLOUDY    70  67  90 SW8       30.09S
BLUEFIELD      CLOUDY    69  64  84 W6        30.12S
$$

VAZ002-007-008-TNZ017-027-036-066-071-230200
...SOUTHWEST VIRGINIA/EAST TENNESSEE...

CITY           SKY/WX    TMP DP  RH WIND       PRES   REMARKS
WISE*          CLOUDY    70  70 100 SW5       30.14R
JONESVILLE*      N/A     75  72  88 E3        30.07R
ABINGDON*      CLOUDY    74  71  92 CALM      30.09R
BRISTOL        MOCLDY    72  69  90 CALM      30.05R
KNOXVILLE      PTCLDY    82  70  66 SW6       30.01R
OAK RIDGE      CLEAR     83  73  72 CALM      30.03R
CROSSVILLE     CLEAR     75  71  87 CALM      30.09R
NASHVILLE      PTCLDY    86  72  62 CALM      29.99R HX  92
$$

...KEY TO REMARKS...
VSB - VISIBILITY IN MILES
WCI - WIND CHILL INDEX
HX  - HEAT INDEX

$$


USA.gov is the U.S. government's official web portal to all federal, state and local government web resources and services.